Location: Unspecified
(0.0000°N, 0.0000°E)
Time: 17:53:19
(UTC+00:00)

A-11 Canister half - Visible Passes

Search period start: 18 January 2020 00:00
Search period end: 28 January 2020 00:00
Orbit: 1516 x 1683 km, 47.2° (Epoch: 18 January)

Date Brightness Start Highest point End Pass type
(mag) Time Alt. Az. Time Alt. Az. Time Alt. Az.
18 Jan 10.1 20:40:30 10° S 20:47:13 27° SE 20:47:13 27° SE visible
18 Jan 11.0 22:43:53 10° SW 22:45:25 16° SW 22:45:25 16° SW visible
19 Jan 10.1 20:17:50 10° S 20:25:37 26° SE 20:25:39 26° SE visible
19 Jan 10.7 22:20:53 10° SW 22:23:51 23° SW 22:23:51 23° SW visible
20 Jan 10.1 19:55:11 10° S 20:02:38 24° SE 20:04:08 23° ESE visible
20 Jan 10.3 21:57:52 10° SW 22:02:21 31° SW 22:02:21 31° SW visible
21 Jan 10.2 19:32:35 10° S 19:39:39 22° SE 19:42:41 19° ESE visible
21 Jan 9.8 21:34:53 10° SW 21:40:54 43° SW 21:40:54 43° SW visible
22 Jan 10.4 19:10:01 10° S 19:16:39 20° SE 19:21:18 14° ESE visible
22 Jan 9.3 21:11:55 10° SW 21:19:31 59° SW 21:19:31 59° SW visible
23 Jan 10.5 18:47:31 10° S 18:53:39 18° SE 18:59:38 10° E visible
23 Jan 8.9 20:48:58 10° SW 20:58:11 79° SSW 20:58:11 79° SSW visible
24 Jan 10.6 18:25:06 10° S 18:30:39 16° SE 18:36:05 10° E visible
24 Jan 8.8 20:26:02 10° SW 20:36:00 82° SE 20:36:55 75° ENE visible
24 Jan 11.2 22:34:25 10° W 22:35:09 12° W 22:35:09 12° W visible
25 Jan 8.9 20:03:06 10° SW 20:13:05 76° SE 20:15:42 54° ENE visible
25 Jan 10.9 22:10:58 10° W 22:13:56 17° W 22:13:56 17° W visible
26 Jan 9.0 19:40:13 10° SSW 19:50:10 70° SE 19:54:32 37° ENE visible
26 Jan 10.6 21:47:35 10° W 21:52:46 22° WNW 21:52:46 22° WNW visible
27 Jan 9.1 19:17:19 10° SSW 19:27:14 65° SE 19:33:25 25° NE visible
27 Jan 10.3 21:24:14 10° WSW 21:31:40 27° NW 21:31:40 27° NW visible
